Weather in Haarlem

Netherlands     52°23′19″N   4°38′19″E
temp.,
°C
wind,
m/s
gust,
m/s
humid.,
%
clouds,
%
prec.,
mm/h
press.,
hPa
HPBL,
m
26 june, sun
sun2623:00+16ese2498100 4.6 1011169
02:00+16ssw3797100 5.4 1012402
05:00+15sw3794100 0.3 1012300
08:00+16sw4787100 0.3 1013635
11:00+19sw5661100 0.0 10151159
14:00+19wsw565694 0.0 10161300
17:00+20w3455100 0.0 1016953
20:00+17n2268100 0.0 101584
27 june, mon
mon2723:00+16ene2375100 0.1 101684
02:00+16ese2284100 0.5 101643
05:00+15sse2286100 0.0 101541
08:00+17s238094 0.1 1015153
11:00+19wsw456392 0.2 1016694
14:00+16wnw6773100 0.3 1017484
17:00+18wsw47570 0.0 10181057
20:00+17sw47651 0.0 1019581
28 june, tue
tue2823:00+14sw46725 0.0 1020183
02:00+13ssw368224 0.0 1020142
05:00+13s36881 0.0 1020166
08:00+16ssw46740 0.0 1021431
11:00+19sw46514 0.0 10211230
14:00+20wsw56495 0.0 10201164
17:00+20wnw3349100 0.0 1019631
20:00+20ne3560100 0.0 1018280
29 june, wed
wed2923:00+15e497981 0.0 1017170
02:00+15ese378350 0.0 1016132
05:00+15se3772100 0.0 1015120
08:00+18sse3666100 0.0 1015165
11:00+23ssw3551100 0.0 1015697
14:00+22w55534 0.0 1015798
17:00+22nw33540 0.0 1015562
20:00+21n346282 0.0 1014273
30 june, thu
thu3023:00+16ne357812 0.0 1015120
02:00+16ne23850 0.0 101450
05:00+16ene33900 0.0 101256
08:00+20se24800 0.3 1012165
11:00+26se34525 0.0 1011740
14:00+28s154292 0.0 10102139
17:00+25wnw3359100 0.0 1009535
20:00+20w348764 2.3 1008118